Wind_Speed
16 15 15 13 13 13 10 8 5 4 2 1 3 4 5 7 6 4 11 10 8 3 4 7 10 11 13 14 12 11 11 12 11 15 15 13 17 15 16 19 17 15 15
17 16 19 15 12 10 9 8 6 4 4 1 4 5 5 3 5 2 1 12 9 5 4 6 8 8 11 14 15 13 13 15 17 14 13 19 18 13 16 18 19 16 16
17 15 15 13 12 14 14 10 8 4 3 2 2 4 4 5 3 3 1 1 10 11 11 8 11 12 13 12 11 9 10 13 16 18 17 20 17 16 16 18 15 17 18
14 15 13 14 15 11 10 9 7 6 4 2 1 2 3 3 2 2 1 2 1 3 12 13 12 11 14 16 17 15 11 11 11 18 21 17 19 18 18 17 18 18 15
16 14 14 15 13 12 11 9 8 6 3 1 2 3 5 4 4 4 4 3 5 5 4 11 13 13 13 16 17 19 19 17 14 13 16 16 18 18 18 17 18 17 17
16 15 14 14 13 12 11 10 8 5 4 4 4 7 7 5 6 5 6 7 8 9 8 8 9 11 16 20 20 18 17 17 15 15 17 18 16 16 17 16 21 20 17
18 16 13 14 14 12 12 11 9 6 3 4 4 6 9 13 7 7 8 9 9 10 11 10 11 9 10 16 19 20 19 18 19 18 17 20 22 20 21 21 20 23 19
19 16 15 14 15 13 14 12 9 7 5 5 2 7 8 7 9 9 9 9 11 11 11 12 12 13 13 13 14 20 24 23 19 20 20 22 24 24 20 20 20 22 24
20 19 17 16 16 14 13 13 10 7 5 5 5 3 6 6 13 12 7 10 10 12 12 13 14 14 15 15 15 16 21 21 22 22 23 23 22 22 20 20 20 21 22
22 19 18 17 18 14 13 12 9 7 6 3 7 8 9 10 8 10 10 13 14 13 13 15 15 16 16 15 16 18 24 26 25 23 24 25 26 24 21 21 21 22 24
23 20 19 19 17 15 15 13 15 9 6 13 11 9 11 12 13 16 19 16 15 15 15 16 18 18 17 17 16 21 24 25 26 30 27 26 27 28 28 26 25 26 27
26 25 21 20 18 16 19 20 14 13 16 14 9 10 11 12 14 16 19 18 18 18 17 17 18 18 16 16 18 23 29 30 28 26 27 28 30 30 30 30 28 28 28
26 24 23 22 21 23 20 15 12 12 14 11 10 11 12 13 14 15 15 18 20 19 19 19 19 21 20 19 19 23 28 32 30 30 31 31 33 34 34 32 31 29 27
25 22 25 23 21 21 21 11 11 13 13 13 12 13 13 13 14 14 15 17 22 22 20 20 18 19 19 18 22 25 28 30 27 30 35 37 36 33 31 29 29 28 26
24 21 22 23 22 28 22 11 11 12 11 12 12 13 14 13 14 15 16 16 18 24 25 21 22 20 22 23 22 22 22 20 28 35 38 35 30 28 27 28 28 29 27
21 23 24 25 32 21 17 15 18 10 12 14 13 14 15 15 16 16 17 18 19 23 29 25 25 24 24 24 24 24 23 28 32 29 33 35 33 28 27 28 28 29 29
26 27 27 24 16 11 17 17 11 12 14 17 16 16 17 17 18 19 20 21 22 24 29 31 29 28 28 28 29 27 26 25 27 29 29 32 36 32 30 28 27 27 28
26 21 14 15 15 17 11 12 13 13 16 18 17 18 18 19 21 22 23 24 26 26 29 33 34 32 31 29 31 25 22 24 28 27 28 33 34 29 29 25 24 25 27
14 6 15 15 9 12 7 12 14 15 17 18 18 19 20 21 23 25 26 27 29 30 30 32 35 33 32 30 30 27 24 25 24 27 26 26 26 29 31 24 24 26 24
15 7 16 12 11 10 13 14 15 15 16 17 18 19 21 22 24 26 27 30 31 31 31 32 34 32 30 33 29 30 26 24 24 21 24 25 27 25 24 25 26 26 27
10 13 16 7 5 10 13 15 12 13 16 17 19 20 22 24 28 31 33 36 33 33 32 32 34 30 32 30 27 24 23 22 23 21 23 23 22 20 22 22 22 23 18
12 9 8 10 10 13 16 19 19 20 19 19 21 22 24 26 28 31 33 33 33 35 37 35 36 35 34 30 24 20 20 21 25 22 22 24 20 23 22 20 21 26 29
9 6 8 10 11 11 16 19 19 20 21 20 22 24 26 26 29 30 32 35 36 36 35 34 32 31 32 27 23 23 22 23 24 22 21 25 24 24 22 21 21 26 30
7 9 8 8 8 9 17 21 21 22 23 22 23 25 28 31 32 32 34 35 36 37 32 30 30 27 26 25 21 19 18 19 23 23 21 27 23 23 22 20 22 24 24
7 6 6 7 8 9 16 22 26 26 25 26 25 26 28 33 35 36 39 39 39 41 35 32 35 35 34 29 29 31 30 25 28 25 20 22 21 20 20 23 18 20 17
7 7 7 7 11 14 15 23 27 29 29 28 27 24 27 29 32 34 36 38 43 37 35 31 26 30 30 33 30 30 31 27 24 25 19 19 16 17 23 21 10 18 22
Wind_Direction
162 160 169 163 163 170 168 155 156 154 216 322 12 8 357 353 12 39 304 330 335 323 222 254 286 300 308 316 324 330 331 333 338 340 339 340 337 326 330 332 329 330 330
183 176 175 170 175 156 166 165 163 154 142 21 351 338 332 344 336 35 8 314 347 340 282 262 250 267 288 306 312 320 329 326 330 330 334 335 328 318 321 327 327 329 332
189 188 187 179 161 175 178 190 184 168 148 123 4 348 353 346 342 341 48 18 339 337 325 289 269 273 271 273 289 306 310 309 318 315 320 329 327 312 314 318 313 315 317
205 195 175 170 181 182 178 169 161 163 163 179 302 334 303 292 273 325 318 153 285 315 317 310 308 283 279 279 279 279 289 296 302 303 313 309 311 306 304 305 308 307 309
201 178 180 184 185 182 175 168 167 168 170 193 278 284 281 260 278 279 281 279 313 320 294 308 313 327 313 306 296 283 280 279 285 286 300 297 286 284 284 284 295 294 304
197 183 189 204 189 176 181 177 181 174 184 209 280 276 275 267 254 267 272 283 292 295 308 282 303 310 314 311 311 303 288 282 284 283 275 277 296 295 293 300 303 284 293
201 189 193 203 184 186 187 204 210 202 216 272 322 306 299 268 261 266 261 272 275 283 281 290 302 294 300 310 322 303 295 293 282 280 284 279 276 290 287 291 294 296 290
210 196 198 196 195 194 204 205 197 205 216 246 317 314 305 289 249 265 266 264 276 281 284 280 284 293 297 295 297 290 292 291 289 284 281 281 279 282 294 293 290 285 291
201 199 205 201 199 200 204 211 211 208 248 269 280 297 317 296 310 292 271 265 263 282 275 275 286 283 289 293 298 297 290 291 296 291 288 283 283 282 292 294 291 286 280
213 210 213 202 202 199 205 207 210 208 251 288 279 295 273 279 291 294 283 287 287 276 282 282 282 280 283 290 291 290 281 287 292 294 287 285 285 284 288 288 287 284 283
223 209 212 209 209 202 207 202 213 235 253 295 277 269 271 273 273 275 288 290 281 283 285 285 277 276 278 285 284 282 278 280 288 294 290 288 287 285 283 284 282 279 281
227 214 211 215 210 209 208 221 234 261 293 282 261 264 266 271 275 279 283 283 284 285 287 284 280 275 278 276 277 277 279 283 288 287 287 289 289 289 287 284 282 279 276
213 216 210 211 209 213 217 224 252 290 275 255 257 260 266 269 273 275 277 283 286 287 287 284 283 274 277 276 274 276 283 287 295 294 294 296 295 294 293 288 284 281 279
213 212 217 211 209 216 219 231 279 288 261 252 253 259 265 269 268 268 273 283 290 290 289 288 288 283 273 269 271 271 276 285 284 288 293 297 297 295 294 292 289 285 282
211 215 213 204 209 220 211 264 307 280 240 244 255 261 264 267 264 266 270 276 283 291 290 292 291 285 282 275 269 270 274 276 280 282 290 293 295 295 293 290 287 285 285
205 208 202 208 219 215 218 286 273 244 245 254 259 264 264 264 268 270 272 274 277 282 287 289 289 287 284 279 277 272 274 272 281 291 296 298 298 299 293 289 290 291 289
196 204 216 221 206 221 261 260 231 248 259 262 264 267 265 269 272 272 271 274 277 279 281 285 285 287 285 280 280 272 271 273 280 286 288 289 292 298 293 294 295 291 289
217 228 215 202 225 251 226 234 246 256 264 266 269 270 271 274 272 273 273 274 275 277 277 281 284 285 285 284 281 269 265 272 281 282 285 287 297 299 297 302 299 296 295
206 190 209 216 248 249 234 243 254 268 268 268 269 274 276 275 273 272 272 274 276 279 279 281 283 284 286 282 282 280 267 276 275 285 288 296 299 299 305 311 313 313 312
182 217 224 226 296 218 241 251 267 268 268 272 277 277 277 275 273 273 274 275 277 278 279 282 284 284 284 282 274 274 271 273 279 281 288 289 293 292 300 311 310 309 315
230 241 214 246 217 236 253 263 259 263 273 280 281 281 281 278 274 271 271 273 275 279 283 285 287 283 278 277 275 277 278 279 282 289 289 289 291 289 293 297 303 303 294
207 204 239 202 234 258 255 258 267 279 280 280 282 284 282 282 283 285 285 282 275 275 276 276 281 279 276 273 276 277 280 285 287 286 286 286 286 290 293 294 292 289 289
195 199 211 244 248 245 260 272 280 284 286 284 284 286 286 286 284 284 283 284 281 279 276 275 274 275 274 274 278 280 279 275 279 285 287 289 286 287 292 293 293 295 297
208 228 232 234 245 259 266 275 281 284 287 284 286 287 286 287 286 287 287 281 275 277 278 278 276 273 274 270 272 272 274 278 278 278 280 278 284 287 294 294 296 298 292
216 216 233 241 250 258 273 275 280 284 284 288 288 286 285 283 282 283 281 282 282 280 273 271 268 265 265 262 265 268 265 274 275 275 277 278 285 290 291 299 299 294 309
209 219 228 242 251 263 277 273 278 284 289 294 295 292 286 284 286 286 283 282 285 279 287 272 262 268 261 260 267 264 267 258 262 269 272 275 281 290 299 295 286 297 296
Height
1564 1567 1569 1571 1573 1573 1575 1577 1578 1578 1577 1577 1577 1576 1577 1575 1575 1577 1574 1573 1572 1571 1572 1571 1571 1569 1568 1567 1567 1566 1564 1563 1562 1561 1560 1559 1558 1556 1554 1553 1551 1550 1548
1564 1566 1567 1569 1570 1573 1576 1577 1577 1578 1577 1576 1575 1576 1575 1575 1573 1574 1576 1572 1571 1571 1570 1569 1569 1568 1567 1565 1565 1564 1563 1561 1561 1560 1559 1559 1557 1555 1553 1552 1550 1549 1547
1563 1564 1567 1568 1571 1572 1572 1574 1575 1575 1576 1577 1575 1574 1575 1573 1573 1572 1573 1573 1569 1568 1569 1567 1566 1565 1564 1564 1564 1563 1562 1561 1560 1558 1557 1557 1555 1554 1553 1551 1550 1548 1546
1562 1564 1565 1568 1568 1569 1571 1573 1574 1575 1576 1577 1575 1574 1574 1573 1570 1571 1569 1570 1569 1569 1565 1564 1563 1562 1562 1561 1560 1559 1559 1559 1559 1557 1555 1554 1553 1552 1551 1549 1548 1546 1545
1560 1563 1565 1564 1565 1567 1570 1571 1572 1574 1573 1575 1574 1572 1571 1572 1568 1570 1568 1567 1566 1565 1565 1561 1561 1559 1558 1557 1556 1555 1554 1554 1554 1555 1554 1552 1551 1549 1547 1546 1545 1544 1542
1558 1560 1563 1562 1564 1565 1567 1568 1569 1569 1572 1571 1571 1571 1568 1567 1567 1566 1566 1566 1565 1563 1562 1561 1559 1558 1555 1553 1552 1551 1549 1549 1549 1550 1550 1548 1547 1545 1544 1543 1541 1540 1540
1555 1558 1560 1560 1563 1563 1565 1565 1566 1567 1568 1569 1567 1568 1566 1562 1562 1562 1563 1563 1562 1561 1560 1558 1557 1556 1555 1551 1549 1545 1544 1544 1544 1543 1543 1542 1541 1540 1539 1538 1537 1536 1535
1553 1555 1558 1558 1560 1561 1561 1562 1564 1566 1566 1564 1564 1564 1564 1563 1558 1558 1558 1559 1559 1558 1557 1556 1555 1552 1551 1549 1547 1543 1540 1539 1538 1538 1537 1537 1536 1535 1534 1533 1532 1532 1530
1550 1552 1554 1555 1557 1558 1559 1560 1562 1563 1565 1563 1560 1562 1561 1559 1558 1558 1556 1555 1555 1554 1553 1552 1551 1549 1548 1545 1542 1540 1534 1532 1532 1532 1532 1531 1530 1529 1528 1527 1527 1526 1526
1546 1549 1551 1552 1553 1555 1557 1558 1559 1560 1559 1561 1561 1560 1559 1559 1558 1555 1555 1553 1551 1549 1548 1547 1546 1545 1543 1540 1538 1535 1531 1528 1528 1527 1526 1525 1524 1523 1522 1521 1521 1520 1519
1542 1546 1548 1549 1549 1552 1554 1555 1553 1555 1555 1556 1556 1557 1557 1557 1555 1554 1550 1549 1548 1546 1545 1543 1541 1540 1538 1536 1534 1529 1525 1524 1523 1522 1520 1519 1518 1517 1515 1514 1514 1514 1513
1537 1540 1543 1544 1546 1549 1549 1548 1549 1550 1551 1551 1552 1553 1553 1552 1551 1550 1547 1545 1543 1541 1540 1538 1536 1534 1532 1531 1529 1524 1520 1519 1518 1516 1515 1513 1511 1509 1508 1507 1506 1506 1506
1532 1535 1537 1540 1542 1543 1543 1545 1546 1547 1546 1547 1548 1550 1549 1548 1547 1546 1544 1541 1539 1537 1534 1532 1531 1528 1527 1526 1524 1520 1515 1512 1512 1510 1508 1506 1504 1501 1499 1498 1496 1495 1495
1528 1531 1532 1536 1538 1538 1539 1541 1541 1541 1542 1542 1543 1545 1545 1543 1543 1542 1540 1538 1534 1531 1529 1527 1526 1524 1521 1519 1517 1513 1512 1510 1506 1503 1501 1499 1496 1493 1491 1489 1488 1486 1486
1523 1525 1527 1531 1532 1532 1536 1536 1536 1537 1538 1539 1539 1540 1539 1538 1538 1537 1536 1534 1532 1527 1523 1522 1520 1520 1517 1514 1511 1508 1506 1506 1500 1498 1497 1492 1489 1487 1484 1482 1480 1478 1477
1518 1521 1522 1524 1524 1529 1532 1531 1533 1536 1536 1536 1535 1534 1534 1534 1534 1532 1530 1529 1527 1524 1517 1518 1515 1514 1511 1509 1507 1502 1501 1499 1496 1492 1489 1486 1483 1480 1478 1475 1473 1472 1470
1511 1513 1515 1520 1524 1526 1527 1528 1531 1532 1533 1534 1532 1530 1529 1528 1527 1526 1525 1523 1521 1519 1514 1509 1509 1507 1503 1502 1500 1496 1494 1493 1491 1488 1484 1480 1477 1474 1471 1469 1466 1464 1462
1506 1510 1513 1517 1520 1521 1523 1526 1528 1529 1529 1528 1527 1526 1524 1523 1522 1520 1519 1516 1514 1512 1509 1503 1501 1499 1497 1494 1491 1489 1486 1486 1484 1482 1479 1475 1472 1468 1464 1462 1459 1457 1455
1506 1511 1512 1514 1517 1518 1521 1524 1523 1523 1525 1523 1522 1520 1518 1517 1515 1514 1512 1510 1507 1505 1502 1497 1492 1491 1489 1487 1485 1482 1480 1479 1478 1476 1473 1469 1466 1463 1459 1456 1454 1451 1449
1500 1506 1509 1511 1513 1515 1518 1520 1518 1518 1519 1518 1516 1514 1512 1511 1509 1508 1505 1503 1500 1497 1494 1490 1486 1483 1482 1480 1478 1475 1473 1473 1471 1470 1468 1466 1463 1459 1455 1452 1448 1445 1442
1498 1501 1505 1507 1509 1513 1514 1514 1513 1514 1513 1511 1509 1508 1506 1504 1502 1500 1498 1495 1493 1490 1487 1484 1480 1476 1474 1472 1470 1469 1467 1467 1465 1464 1462 1460 1458 1455 1452 1449 1445 1442 1438
1497 1500 1502 1505 1507 1508 1507 1507 1507 1506 1505 1504 1502 1501 1499 1497 1494 1491 1487 1485 1484 1481 1479 1476 1473 1470 1467 1466 1465 1463 1462 1461 1459 1460 1457 1454 1453 1450 1447 1444 1442 1438 1435
1496 1498 1501 1502 1502 1503 1502 1501 1501 1500 1498 1497 1496 1494 1491 1489 1487 1484 1480 1476 1473 1471 1468 1467 1464 1463 1460 1460 1459 1457 1457 1455 1454 1453 1452 1447 1447 1444 1442 1439 1436 1431 1428
1494 1496 1497 1497 1498 1499 1497 1497 1496 1493 1491 1490 1489 1486 1484 1481 1479 1476 1472 1468 1465 1463 1461 1457 1455 1455 1455 1454 1453 1452 1451 1449 1448 1447 1447 1442 1441 1438 1436 1433 1430 1426 1422
1491 1492 1493 1494 1494 1495 1493 1490 1488 1487 1484 1482 1480 1477 1475 1471 1468 1466 1462 1457 1453 1451 1452 1449 1448 1448 1447 1446 1447 1447 1445 1445 1441 1440 1440 1438 1435 1432 1430 1427 1425 1421 1418
1488 1489 1489 1490 1489 1489 1487 1483 1481 1479 1475 1472 1470 1467 1464 1461 1457 1454 1451 1448 1443 1441 1441 1439 1438 1437 1437 1438 1438 1438 1437 1437 1436 1434 1435 1434 1430 1429 1425 1422 1420 1418 1415